4XCWR LLBG-LLHZ

Flight info

Callsign 4XCWR
Flight time 0h -10m
Altitude 1200
Route PARDS GNYAM
Aircraft C172/L-SD/C

Departure

Time 2026-04-16 12:31
Airport Ben Gurion International Airport (LLBG)

Arrival

Time 2026-04-16 12:21
Airport Herzliya Airport (LLHZ)
Time Latitude Longitude Altitude Speed Heading
2026-04-16 12:10 32.00647 34.89705 114 ft 0 kts 299°
2026-04-16 12:20 32.00676 34.89667 114 ft 14 kts 354°
2026-04-16 12:20 32.00785 34.89735 114 ft 18 kts 28°
2026-04-16 12:20 32.00853 34.89692 115 ft 12 kts 296°
2026-04-16 12:21 32.00871 34.89655 115 ft 2 kts 296°
2026-04-16 12:21 32.00903 34.89586 115 ft 17 kts 299°
2026-04-16 12:21 32.00974 34.89437 115 ft 25 kts 299°
2026-04-16 12:21 32.01048 34.89313 115 ft 15 kts 347°
2026-04-16 12:22 32.01141 34.89359 115 ft 17 kts 28°
2026-04-16 12:22 32.01162 34.89372 115 ft 1 kts 27°
2026-04-16 12:22 32.01205 34.89400 115 ft 13 kts 31°
2026-04-16 12:22 32.01305 34.89465 115 ft 18 kts 29°
2026-04-16 12:23 32.01395 34.89523 115 ft 0 kts 28°
2026-04-16 12:23 32.01399 34.89526 115 ft 0 kts 28°
2026-04-16 12:23 32.01411 34.89534 115 ft 8 kts 29°
2026-04-16 12:23 32.01483 34.89580 115 ft 11 kts 29°
2026-04-16 12:24 32.01502 34.89592 115 ft 0 kts 27°
2026-04-16 12:25 32.01507 34.89595 115 ft 6 kts 30°
2026-04-16 12:25 32.01608 34.89660 114 ft 24 kts 28°
2026-04-16 12:25 32.01767 34.89761 113 ft 26 kts 26°
2026-04-16 12:26 32.01839 34.89692 113 ft 12 kts 261°
2026-04-16 12:26 32.01837 34.89682 113 ft 0 kts 262°
2026-04-16 12:29 32.01824 34.89600 112 ft 32 kts 260°
2026-04-16 12:29 32.01756 34.89149 113 ft 77 kts 259°
2026-04-16 12:30 32.01718 34.88481 264 ft 82 kts 290°
2026-04-16 12:30 32.02064 34.88011 456 ft 71 kts 333°
2026-04-16 12:30 32.02498 34.87712 600 ft 71 kts 336°
2026-04-16 12:30 32.02945 34.87456 717 ft 74 kts 339°
2026-04-16 12:31 32.03443 34.87241 839 ft 78 kts 344°
2026-04-16 12:31 32.03563 34.86715 905 ft 91 kts 226°
2026-04-16 12:31 32.03071 34.86230 1090 ft 98 kts 229°
2026-04-16 12:31 32.02598 34.85621 1035 ft 100 kts 230°
2026-04-16 12:32 32.02020 34.85353 661 ft 118 kts 147°
2026-04-16 12:32 32.01764 34.86068 653 ft 81 kts 109°
2026-04-16 12:32 32.01425 34.86664 163 ft 80 kts 117°
2026-04-16 12:32 32.01203 34.87100 114 ft 40 kts 121°
2026-04-16 12:33 32.01119 34.87261 116 ft 19 kts 123°
2026-04-16 12:33 32.01051 34.87391 116 ft 19 kts 121°
2026-04-16 12:33 32.00970 34.87547 117 ft 25 kts 122°
2026-04-16 12:33 32.00869 34.87744 116 ft 30 kts 122°
2026-04-16 12:34 32.00767 34.87942 115 ft 18 kts 120°
2026-04-16 12:34 32.00771 34.88051 115 ft 13 kts 32°
2026-04-16 12:34 32.00813 34.88081 115 ft 0 kts 30°
2026-04-16 12:35 32.00815 34.88083 115 ft 1 kts 27°
2026-04-16 12:35 32.00846 34.88105 115 ft 12 kts 32°
2026-04-16 12:35 32.00914 34.88181 115 ft 14 kts 85°
2026-04-16 12:35 32.00865 34.88294 115 ft 20 kts 122°
2026-04-16 12:36 32.00784 34.88449 115 ft 24 kts 122°
2026-04-16 12:36 32.00694 34.88623 115 ft 25 kts 122°
2026-04-16 12:36 32.00603 34.88796 115 ft 24 kts 121°
2026-04-16 12:36 32.00516 34.88964 115 ft 21 kts 122°
2026-04-16 12:37 32.00498 34.89000 115 ft 3 kts 116°
2026-04-16 12:37 32.00447 34.89101 114 ft 24 kts 121°
2026-04-16 12:37 32.00359 34.89273 114 ft 22 kts 121°
2026-04-16 12:37 32.00284 34.89417 114 ft 21 kts 121°
2026-04-16 12:38 32.00235 34.89558 114 ft 15 kts 65°
2026-04-16 12:38 32.00341 34.89614 114 ft 21 kts 17°
2026-04-16 12:38 32.00489 34.89667 114 ft 22 kts 16°
2026-04-16 12:38 32.00582 34.89633 114 ft 13 kts 313°
2026-04-16 12:39 32.00640 34.89631 114 ft 8 kts 315°
2026-04-16 12:39 32.00660 34.89588 114 ft 0 kts 300°